Hourly Data Report for October 03, 2017

All times are specified in Local Standard Time (LST). Add 1 hour to adjust for Daylight Saving Time where and when it is observed.

CHARLOTTETOWN A
PRINCE EDWARD ISLAND

46°17'21.000" N
63°07'09.000" W
48.50 m
8300301
71706
YYG

Download Data

Hourly Data (October 2017)
Hourly Data Report for October 3, 2017
Temp Definition
°C
Dew Point Temp Definition
°C
Rel Hum Definition
%
Wind Dir Definition
10's deg

Wind Spd Definition
km/h
Visibility Definition
km
Stn Press Definition
kPa
Hmdx Definition


Wind Chill Definition


Weather Definition


TIME
00:00 Legend Double Dagger 9.4 2.6 62 36 18 24.1 102.70     LegendNANA
01:00 Legend Double Dagger 9.4 2.7 63 35 10 24.1 102.76     LegendNANA
02:00 Legend Double Dagger 9.1 2.8 64 36 9 24.1 102.80     Cloudy
03:00 Legend Double Dagger 9.2 2.6 63 36 10 24.1 102.83     LegendNANA
04:00 Legend Double Dagger 8.1 3.0 70 36 9 24.1 102.86     LegendNANA
05:00 Legend Double Dagger 7.2 3.0 75 33 9 24.1 102.91     Mostly Cloudy
06:00 Legend Double Dagger 6.8 2.7 75 33 8 24.1 102.95     LegendNANA
07:00 Legend Double Dagger 7.2 3.4 77 30 7 24.1 102.99     LegendNANA
08:00 Legend Double Dagger 9.9 5.1 72 33 6 24.1 103.00     Mainly Clear
09:00 Legend Double Dagger 11.6 4.0 59 1 17 24.1 103.06     LegendNANA
10:00 Legend Double Dagger 11.9 4.1 58 34 12 24.1 103.04     LegendNANA
11:00 Legend Double Dagger 12.1 4.0 57 1 10 24.1 103.01     Mostly Cloudy
12:00 Legend Double Dagger 11.7 3.5 57 35 12 24.1 103.02     LegendNANA
13:00 Legend Double Dagger 12.2 3.2 54 34 16 24.1 102.98     LegendNANA
14:00 Legend Double Dagger 11.5 2.3 53 36 10 24.1 102.89     Mostly Cloudy
15:00 Legend Double Dagger 11.4 4.2 61 32 4 24.1 102.78     LegendNANA
16:00 Legend Double Dagger 11.2 5.2 66 25 13 24.1 102.70     LegendNANA
17:00 Legend Double Dagger 10.3 4.7 68 24 8 24.1 102.63     Mostly Cloudy
18:00 Legend Double Dagger 8.7 5.0 78 25 3 24.1 102.67     LegendNANA
19:00 Legend Double Dagger 7.3 4.6 82 25 5 24.1 102.64     LegendNANA
20:00 Legend Double Dagger 8.2 4.5 77 22 8 24.1 102.55     Mostly Cloudy
21:00 Legend Double Dagger 8.5 5.3 80 22 8 24.1 102.46     LegendNANA
22:00 Legend Double Dagger 9.3 6.8 84 23 11 24.1 102.42     LegendNANA
23:00 Legend Double Dagger 9.8 8.0 88 23 13 24.1 102.30     Mainly Clear

Notes on Data Quality.

Legend

  • E = Estimated
  • M = Missing
  • NA = Not Available
  • ‡ = Partner data that is not subject to review by the National Climate Archives
Date modified: